TimeEDT,TemperatureF,Dew PointF,Humidity,Sea Level PressureIn,VisibilityMPH,Wind Direction,Wind SpeedMPH,Gust SpeedMPH,PrecipitationIn,Events,Conditions,WindDirDegrees,DateUTC
1:53 AM,55.0,48.9,80,30.11,10.0,Calm,Calm,-,N/A,,Clear,0,2013-08-16 05:53:00
2:53 AM,54.0,50.0,86,30.11,10.0,Calm,Calm,-,N/A,,Clear,0,2013-08-16 06:53:00
3:53 AM,54.0,51.1,90,30.11,10.0,Calm,Calm,-,N/A,,Clear,0,2013-08-16 07:53:00
4:53 AM,54.0,51.1,90,30.12,10.0,SSE,3.5,-,N/A,,Clear,160,2013-08-16 08:53:00
5:53 AM,53.1,50.0,89,30.13,10.0,South,4.6,-,N/A,,Clear,180,2013-08-16 09:53:00
6:53 AM,53.1,50.0,89,30.14,10.0,Calm,Calm,-,N/A,,Clear,0,2013-08-16 10:53:00
7:53 AM,54.0,50.0,86,30.15,10.0,Calm,Calm,-,N/A,,Clear,0,2013-08-16 11:53:00
8:53 AM,61.0,53.1,75,30.16,10.0,Calm,Calm,-,N/A,,Clear,0,2013-08-16 12:53:00
9:53 AM,68.0,57.0,68,30.16,10.0,Calm,Calm,-,N/A,,Clear,0,2013-08-16 13:53:00
10:53 AM,73.9,52.0,46,30.17,10.0,Calm,Calm,-,N/A,,Clear,0,2013-08-16 14:53:00
11:53 AM,77.0,48.9,37,30.16,10.0,Calm,Calm,-,N/A,,Partly Cloudy,0,2013-08-16 15:53:00
12:53 PM,79.0,48.9,35,30.16,10.0,Variable,4.6,-,N/A,,Scattered Clouds,0,2013-08-16 16:53:00
1:53 PM,80.1,50.0,35,30.15,10.0,Variable,5.8,-,N/A,,Scattered Clouds,0,2013-08-16 17:53:00
2:53 PM,80.1,48.9,34,30.15,10.0,ENE,3.5,-,N/A,,Scattered Clouds,70,2013-08-16 18:53:00
3:53 PM,81.0,51.1,35,30.14,10.0,NNE,8.1,-,N/A,,Scattered Clouds,30,2013-08-16 19:53:00
4:53 PM,79.0,52.0,39,30.15,10.0,NE,8.1,-,N/A,,Scattered Clouds,40,2013-08-16 20:53:00
5:53 PM,77.0,54.0,45,30.15,10.0,NE,6.9,-,N/A,,Partly Cloudy,40,2013-08-16 21:53:00
6:53 PM,75.9,55.0,48,30.16,10.0,NE,6.9,-,N/A,,Partly Cloudy,40,2013-08-16 22:53:00
7:53 PM,73.0,60.1,64,30.16,10.0,NE,6.9,-,N/A,,Partly Cloudy,50,2013-08-16 23:53:00
8:53 PM,70.0,64.0,81,30.17,10.0,NE,3.5,-,N/A,,Scattered Clouds,50,2013-08-17 00:53:00
9:53 PM,66.0,62.1,87,30.19,10.0,Calm,Calm,-,N/A,,Partly Cloudy,0,2013-08-17 01:53:00
10:53 PM,63.0,60.1,90,30.19,10.0,Calm,Calm,-,N/A,,Clear,0,2013-08-17 02:53:00
11:53 PM,60.1,57.0,90,30.19,10.0,Calm,Calm,-,N/A,,Clear,0,2013-08-17 03:53:00